ORBCOMM FM112 [+] (41184 NORAD) Tracking and Keplerian Element Data

This shows tracking and keplerian element data for the satellite.

Feedback or suggestion? Click here.




ElementValue
Catalog41184
NameORBCOMM FM112 [+]
Epoch Orbit15998
Epoch Day351.87313829
Epoch Year2018
RAAN197.4831
Inclination46.9977
Eccentricity0.0001963
Argument of Perigee357.2695
Mean Anonmoly2.8178
Mean Motion14.54752299
Decay Rate-9.8E-07
L11 41184U 15081F 18351.87313829 -.00000098 00000-0 15555-4 0 9995
L22 41184 46.9977 197.4831 0001963 357.2695 2.8178 14.54752299159987

Live tracking and technical data element details for ORBCOMM FM112 [+] (NORAD 41184). ORBCOMM FM112 [+] can be tracked NOW for your location showing map with azimuth and elevation plus other details from your city location.

Track the satellite on the map from your city or location and see movement details for azimuth, elevation, latitude, longitude, range, height, and movement on the map or in text.







IsCatalogInMostPopularTable: catalog: 41184, numindb: 97
Update: records affected: 1



GetName: 41184 ORBCOMM FM112 [+]

Hit Count: updated at: Tue, 18 Dec 2018 21:50:08 GMT